Track D-STAR ONE SPARROW now! 10-day predictions D-STAR ONE SPARROW is classified as:
1 43881U 18111F 24325.98231492 .00023996 00000-0 11445-2 0 9996 2 43881 97.6165 233.7929 0006875 204.3460 155.7450 15.19063463321214